{"data":{"norad_id":62481,"intl_designator":"2024-254V","name":"STARLINK-32753","alt_names":[],"object_type":"PAYLOAD","status":"ACTIVE","operator":null,"country":"US","launch_date":"2024-12-31","launch_site_code":"AFETR","launch_vehicle":null,"mission":null,"orbit_class":"UNKNOWN","rcs_meters":null,"size_class":null,"mass_kg":null,"dimensions":null,"purposes":["comms"],"wikipedia_slug":null,"has_3d_model":false,"image_url":null,"decayed_at":null,"tle_current":{"epoch":"2026-05-24T18:47:10.648032Z","epoch_age_seconds":87824,"freshness":"FRESH","line1":"1 62481U 24254V   26144.78276213  .00011649  00000+0  43202-3 0  9995","line2":"2 62481  43.0014 306.3588 0001918 265.1727  94.8905 15.27590556 79294","mean_motion":15.27590556,"eccentricity":0.0001918,"inclination_deg":43.0014,"raan_deg":306.3588,"arg_perigee_deg":265.1727,"mean_anomaly_deg":94.8905,"bstar":0.00043202,"rev_number":7929,"period_min":94.266097308866,"perigee_km":481.70151832942,"apogee_km":484.33345719092,"semimajor_km":6861.1544877602,"source":"CELESTRAK","updated_at":"2026-05-25T13:38:19.695483Z"}}}